[[{"header":{"parameterUnit":"m.s-1","parameterCategory":1,"la1":30.2992,"la2":30.254,"lo1":-89.0895,"lo2":-89.0443,"dy":0.0025,"dx":0.0025,"nx":19,"ny":19,"refTime":"2026-03-21T09:00:00:Z","depth":0,"parameterNumber":2,"parameterNumberName":"U-component_of_WINDS"},"data":[0,0,0,2.103,2.1032,2.1113,2.1114,2.121,2.1211,0,0,0,0,0,0,0,0,0,0,0,2.0999,2.0999,2.103,2.1032,2.1113,2.1114,2.121,2.1211,0,0,0,0,0,0,0,0,0,0,0,2.0999,2.0999,2.0999,2.1032,2.1113,2.1114,2.1209,2.1152,0,0,0,0,0,0,0,0,0,0,2.1075,2.1037,2.0999,2.0999,2.1033,2.1113,2.1114,2.1149,2.1155,2.1169,0,2.1176,0,2.1195,2.1216,2.1217,0,0,0,2.1039,2.1031,2.106,2.0999,2.1033,2.1113,2.1078,2.1153,2.116,2.1177,2.1178,2.1181,2.1196,2.1217,2.1217,2.1268,2.1268,0,0,2.1034,2.101,2.1055,2.1064,2.1048,2.1076,2.1081,2.1157,2.1157,2.1178,2.1184,2.1198,2.1217,2.1218,2.1268,2.1268,0,0,0,2.1017,2.1006,2.1033,2.106,2.1075,2.1078,2.1084,2.1154,2.1165,2.1185,2.1199,2.1218,2.1219,2.1268,2.1268,2.124,0,0,0,2.1015,2.0996,2.1031,2.1017,2.1073,2.1115,2.1078,2.1159,2.1169,2.1198,2.1218,2.122,2.1268,2.1268,2.1241,2.123,0,0,0,2.0996,2.0994,2.1003,2.1015,2.1049,2.1114,2.1129,2.1162,2.1177,2.1217,2.122,2.1268,2.1268,2.1241,2.1232,2.1237,0,0,0,2.097,2.0977,2.1002,2.1016,2.1048,2.1095,2.1129,2.1166,2.1197,2.1218,2.1268,2.1268,2.1242,2.1233,2.1237,2.1235,2.1232,0,0,2.0966,2.0976,2.0986,2.1011,2.1047,2.1085,2.1118,2.1171,2.1198,2.1244,2.1246,2.124,2.1232,2.1237,2.1224,2.1221,0,0,0,2.0977,2.0984,2.0999,2.1026,2.1065,2.1099,2.1149,2.1169,2.1208,2.1216,2.1244,2.124,2.1244,2.1244,2.1242,2.1247,2.1267,2.1267,2.1267,2.0935,2.0969,2.0989,2.1033,2.1059,2.1111,2.1136,2.1173,2.12,2.1207,2.122,2.1208,2.1207,2.1206,2.1211,2.1222,2.1222,2.1222,2.1222,2.0931,2.0947,2.0983,2.1015,2.1053,2.1081,2.1133,2.1152,2.1186,2.12,2.1205,2.1218,2.1201,2.1208,2.122,2.1221,2.1221,2.1221,2.1221,2.0907,2.092,2.0944,2.0988,2.1019,2.1065,2.1096,2.1129,2.1161,2.1166,2.1185,2.1185,2.119,2.1173,2.1173,2.1173,2.1173,2.1173,2.1173,2.0872,2.0899,2.092,2.0963,2.0986,2.1021,2.1075,2.11,2.1136,2.1158,2.1158,2.1186,2.1193,2.1194,2.1172,2.1172,2.1172,2.1172,2.1172,2.0854,2.0864,2.0895,2.0918,2.0973,2.1003,2.1046,2.1093,2.1119,2.1134,2.1161,2.1161,2.1174,2.1177,2.1178,2.1153,2.1153,2.1153,2.1153,2.0833,2.0843,2.0883,2.0918,2.0957,2.0999,2.1037,2.108,2.1128,2.1146,2.1155,2.116,2.1161,2.1174,2.1176,2.1178,2.1153,2.1153,2.1153,2.0824,2.084,2.0863,2.0908,2.0955,2.0995,2.1032,2.1073,2.1129,2.1154,2.1162,2.1162,2.117,2.117,2.1193,2.1196,2.12,0,0]},{"header":{"parameterUnit":"m.s-1","parameterCategory":1,"la1":30.2992,"la2":30.254,"lo1":-89.0895,"lo2":-89.0443,"dy":0.0025,"dx":0.0025,"nx":19,"ny":19,"refTime":"2026-03-21T09:00:00:Z","depth":0,"parameterNumber":3,"parameterNumberName":"V-component_of_WINDS"},"data":[0,0,0,2.5939,2.594,2.599,2.599,2.6042,2.6042,0,0,0,0,0,0,0,0,0,0,0,2.592,2.592,2.5939,2.594,2.599,2.599,2.6042,2.6042,0,0,0,0,0,0,0,0,0,0,0,2.592,2.592,2.5921,2.594,2.599,2.599,2.6042,2.6008,0,0,0,0,0,0,0,0,0,0,2.5961,2.5941,2.592,2.5921,2.5941,2.5989,2.599,2.6006,2.601,2.6016,0,2.6022,0,2.6033,2.6045,2.6045,0,0,0,2.5943,2.5938,2.5955,2.5921,2.5941,2.5989,2.5968,2.6008,2.6012,2.602,2.6022,2.6025,2.6034,2.6046,2.6046,2.6074,2.6074,0,0,2.594,2.5926,2.5952,2.5957,2.5952,2.5966,2.5969,2.6011,2.6012,2.6023,2.6026,2.6035,2.6046,2.6046,2.6074,2.6074,0,0,0,2.593,2.5924,2.5941,2.5955,2.5965,2.5968,2.5971,2.601,2.6016,2.6027,2.6035,2.6046,2.6047,2.6074,2.6074,2.6062,0,0,0,2.5929,2.5919,2.594,2.5932,2.5964,2.5988,2.5969,2.6014,2.6019,2.6035,2.6046,2.6047,2.6074,2.6074,2.6063,2.6059,0,0,0,2.5918,2.5918,2.5924,2.5931,2.5952,2.5988,2.5997,2.6015,2.6024,2.6046,2.6047,2.6075,2.6074,2.6063,2.6059,2.6062,0,0,0,2.5903,2.5912,2.5923,2.5936,2.5951,2.5981,2.5997,2.602,2.6037,2.6046,2.6074,2.6074,2.6063,2.606,2.6062,2.6062,2.6061,0,0,2.5906,2.5911,2.592,2.5932,2.5956,2.5975,2.5996,2.6024,2.6037,2.6061,2.6062,2.6063,2.6059,2.6062,2.6059,2.6058,0,0,0,2.5917,2.5923,2.5932,2.5949,2.5971,2.5989,2.6016,2.6025,2.6046,2.6048,2.6065,2.6063,2.6065,2.6066,2.6065,2.6067,2.6074,2.6074,2.6074,2.5902,2.592,2.5935,2.5958,2.5974,2.6001,2.6014,2.6032,2.6045,2.6048,2.6055,2.6051,2.6051,2.6051,2.6053,2.6057,2.6056,2.6056,2.6056,2.5908,2.5919,2.5936,2.5957,2.5975,2.5992,2.6017,2.6025,2.6042,2.6048,2.605,2.6055,2.6049,2.6052,2.6056,2.6056,2.6056,2.6056,2.6056,2.5901,2.5909,2.5922,2.5947,2.5964,2.5987,2.6002,2.6017,2.6032,2.6034,2.6043,2.6043,2.6045,2.6037,2.6037,2.6037,2.6037,2.6037,2.6037,2.5888,2.5903,2.5915,2.5939,2.5951,2.5969,2.5994,2.6006,2.6022,2.6032,2.6032,2.6043,2.6046,2.6046,2.6037,2.6037,2.6037,2.6037,2.6037,2.5887,2.589,2.5909,2.5921,2.595,2.5964,2.5984,2.6006,2.6017,2.6024,2.6035,2.6034,2.604,2.6041,2.6041,2.6032,2.6032,2.6032,2.6032,2.5881,2.5886,2.5908,2.5926,2.5946,2.5965,2.5983,2.6002,2.6022,2.603,2.6033,2.6035,2.6035,2.6041,2.6041,2.6042,2.6033,2.6033,2.6033,2.5881,2.5888,2.5903,2.5924,2.5947,2.5965,2.5983,2.6001,2.6024,2.6033,2.6036,2.6036,2.6038,2.6038,2.6048,2.6049,2.605,0,0]}]]